TimeEST,TemperatureF,Dew PointF,Humidity,Sea Level PressureIn,VisibilityMPH,Wind Direction,Wind SpeedMPH,Gust SpeedMPH,PrecipitationIn,Events,Conditions,WindDirDegrees,DateUTC
12:53 AM,-0.9,-8.0,72,30.34,10.0,West,6.9,-,N/A,,Clear,280,2014-01-24 05:53:00
1:14 AM,-2.0,-8.0,76,30.20,7.0,West,6.9,-,N/A,,Mostly Cloudy,280,2014-01-24 06:14:00
1:29 AM,-2.0,-9.0,72,30.20,9.0,West,6.9,-,N/A,,Scattered Clouds,280,2014-01-24 06:29:00
1:40 AM,-2.0,-9.0,72,30.20,10.0,WNW,4.6,-,N/A,,Partly Cloudy,290,2014-01-24 06:40:00
1:53 AM,-4.0,-9.0,79,30.35,10.0,WNW,3.5,-,N/A,,Clear,290,2014-01-24 06:53:00
2:44 AM,-2.9,-9.0,75,30.21,8.0,West,4.6,-,N/A,,Mostly Cloudy,270,2014-01-24 07:44:00
2:53 AM,-2.9,-9.0,75,30.36,10.0,West,3.5,-,N/A,,Mostly Cloudy,270,2014-01-24 07:53:00
3:07 AM,-2.9,-9.0,75,30.21,5.0,West,3.5,-,0.00,Snow,Light Snow,270,2014-01-24 08:07:00
3:19 AM,-2.9,-9.0,75,30.21,10.0,Calm,Calm,-,0.00,,Scattered Clouds,0,2014-01-24 08:19:00
3:42 AM,-2.9,-9.0,75,30.21,7.0,Variable,3.5,-,0.00,,Mostly Cloudy,0,2014-01-24 08:42:00
3:53 AM,-2.0,-9.0,72,30.36,6.0,West,3.5,-,0.00,,Haze,270,2014-01-24 08:53:00
4:06 AM,-2.0,-8.0,76,30.22,5.0,Variable,3.5,-,0.00,Snow,Light Snow,0,2014-01-24 09:06:00
4:34 AM,-0.9,-8.0,72,30.22,2.5,West,5.8,-,0.00,Snow,Light Snow,260,2014-01-24 09:34:00
4:53 AM,-2.0,-8.0,76,30.37,3.0,West,5.8,-,0.00,Snow,Light Snow,260,2014-01-24 09:53:00
5:08 AM,-2.0,-9.0,72,30.22,5.0,WSW,4.6,-,0.00,,Haze,240,2014-01-24 10:08:00
5:34 AM,-2.0,-9.0,72,30.22,5.0,WSW,3.5,-,0.00,Snow,Light Snow,250,2014-01-24 10:34:00
5:53 AM,-2.9,-9.0,75,30.37,5.0,SW,5.8,-,0.00,,Haze,230,2014-01-24 10:53:00
6:05 AM,-2.9,-9.0,75,30.22,9.0,Variable,5.8,-,N/A,,Overcast,0,2014-01-24 11:05:00
6:53 AM,-2.9,-9.0,75,30.38,5.0,SW,5.8,-,N/A,,Haze,230,2014-01-24 11:53:00
7:01 AM,-2.9,-9.0,75,30.22,6.0,WSW,5.8,-,N/A,,Haze,240,2014-01-24 12:01:00
7:46 AM,-2.9,-9.0,75,30.22,4.0,WSW,6.9,-,N/A,,Haze,240,2014-01-24 12:46:00
7:53 AM,-2.9,-9.0,75,30.37,4.0,WSW,5.8,-,0.00,Snow,Light Snow,240,2014-01-24 12:53:00
8:04 AM,-2.9,-9.0,75,30.21,3.0,SW,4.6,-,0.00,Snow,Light Snow,230,2014-01-24 13:04:00
8:13 AM,-2.9,-9.0,75,30.21,2.5,Variable,4.6,-,0.00,Snow,Light Snow,0,2014-01-24 13:13:00
8:33 AM,-2.0,-8.0,76,30.20,1.8,SW,5.8,-,0.00,Snow,Light Snow,230,2014-01-24 13:33:00
8:53 AM,-2.0,-8.0,76,30.36,1.2,SW,8.1,-,0.00,Snow,Light Snow,220,2014-01-24 13:53:00
9:01 AM,-0.9,-8.0,72,30.20,2.0,SW,8.1,-,0.00,Snow,Light Snow,220,2014-01-24 14:01:00
9:11 AM,-0.9,-8.0,72,30.20,4.0,Variable,6.9,-,0.00,Snow,Light Snow,0,2014-01-24 14:11:00
9:40 AM,-0.0,-7.1,72,30.19,2.5,WSW,11.5,19.6,0.00,,Overcast,240,2014-01-24 14:40:00
9:53 AM,-0.0,-6.0,76,30.34,2.0,SW,6.9,-,0.00,Snow,Light Snow,230,2014-01-24 14:53:00
10:05 AM,1.0,-6.0,72,30.18,1.8,SW,10.4,-,0.00,Snow,Light Snow,220,2014-01-24 15:05:00
10:48 AM,3.2,-5.8,66,30.16,2.0,SW,11.5,18.4,0.00,Snow,Light Snow,230,2014-01-24 15:48:00
10:53 AM,3.0,-5.1,69,30.31,2.5,SW,8.1,18.4,0.00,Snow,Light Snow,220,2014-01-24 15:53:00
11:20 AM,3.9,-5.1,66,30.14,3.0,WSW,11.5,18.4,0.00,Snow,Light Snow,250,2014-01-24 16:20:00
11:53 AM,5.0,-4.0,66,30.27,5.0,SSW,12.7,18.4,0.00,,Haze,200,2014-01-24 16:53:00
12:53 PM,7.0,-5.1,58,30.21,10.0,West,9.2,17.3,0.00,,Overcast,260,2014-01-24 17:53:00
1:53 PM,7.0,-5.1,58,30.17,9.0,SW,13.8,25.3,N/A,,Mostly Cloudy,230,2014-01-24 18:53:00
2:31 PM,8.1,-5.1,55,29.98,9.0,SW,12.7,26.5,N/A,,Scattered Clouds,220,2014-01-24 19:31:00
2:53 PM,8.1,-5.1,55,30.12,10.0,SW,12.7,20.7,N/A,,Scattered Clouds,230,2014-01-24 19:53:00
3:53 PM,7.0,-5.1,58,30.10,10.0,South,11.5,21.9,N/A,,Scattered Clouds,190,2014-01-24 20:53:00
4:53 PM,7.0,-5.1,58,30.07,10.0,SW,13.8,24.2,N/A,,Overcast,220,2014-01-24 21:53:00
5:53 PM,6.1,-6.0,58,30.03,10.0,South,12.7,26.5,N/A,,Overcast,190,2014-01-24 22:53:00
6:53 PM,6.1,-6.0,58,29.98,10.0,South,15.0,25.3,N/A,,Partly Cloudy,190,2014-01-24 23:53:00
7:53 PM,7.0,-6.0,55,29.95,10.0,South,13.8,28.8,N/A,,Overcast,190,2014-01-25 00:53:00
8:53 PM,8.1,-7.1,50,29.91,10.0,SSW,15.0,25.3,N/A,,Scattered Clouds,200,2014-01-25 01:53:00
9:53 PM,8.1,-7.1,50,29.87,10.0,South,9.2,21.9,N/A,,Scattered Clouds,190,2014-01-25 02:53:00
10:53 PM,9.0,-7.1,48,29.82,10.0,SSW,10.4,25.3,N/A,,Mostly Cloudy,210,2014-01-25 03:53:00
11:53 PM,10.9,-7.1,44,29.77,10.0,SSW,13.8,28.8,N/A,,Overcast,210,2014-01-25 04:53:00